Weather History for Greenville, ME

Change the Weather History Date:

Tuesday, January 7, 2014

  Actual Average (KMLT) Record (KMLT)
Temperature  
Mean Temperature 10 °F 15 °F  
Max Temperature 18 °F 24 °F 51 °F (1946)
Min Temperature 1 °F 5 °F -24 °F (1945)
Degree Days  
Heating Degree Days 56 50  
Month to date heating degree days 346  
Since 1 July heating degree days 3511  
Cooling Degree Days 0 0  
Month to date cooling degree days 0  
Year to date cooling degree days 0  
Moisture  
Dew Point -6 °F    
Average Humidity 57    
Maximum Humidity 73    
Minimum Humidity 45    
Precipitation  
Precipitation 0.00 in 0.12 in 0.77 in (1938)
Month to date precipitation 0.91  
Year to date precipitation 0.91  
Sea Level Pressure  
Sea Level Pressure 29.57 in    
Wind  
Wind Speed 8 mph (WNW)    
Max Wind Speed 13 mph    
Max Gust Speed 28 mph    
T = Trace of Precipitation, MM = Missing Value Source: NWS Daily Summary

Daily Weather History Graph

Daily Weather History Graph

Search for Another Location

Airport:

Trip Planner

Search our weather history database for the weather conditions in past years. The results will help you decide how hot, cold, wet, or windy it might be!

Date:

Astronomy

Jan. 07, 2014 Rise Set
Actual Time 7:17 AM EST 4:11 PM EST
Civil Twilight 6:44 AM EST 4:45 PM EST
Nautical Twilight 6:06 AM EST 5:22 PM EST
Astronomical Twilight 5:31 AM EST 5:58 PM EST
Moon 10:42 AM EST (1/7) No Moon Set
Length of Visible Light 10h 01m
Length of Day
8h 54m
Waxing Crescent, 45% of the Moon is Illuminated
Jan 7
Waxing Crescent
Jan 7
First Quarter
Jan 15
Full
Jan 24
Last Quarter
Jan 30
New

Hourly Weather History & Observations

Time (EST) Temp. Windchill Dew Point Humidity Pressure Visibility Wind Dir Wind Speed Gust Speed Precip Events Conditions
12:56 AM 18.0 °F 6.9 °F 9.0 °F 68% 29.26 in - WNW 9.2 mph 16.1 mph N/A   Unknown
1:56 AM 16.0 °F 2.3 °F 5.0 °F 62% 29.28 in - WNW 12.7 mph 27.6 mph N/A   Unknown
2:56 AM 14.0 °F 2.0 °F 3.0 °F 62% 29.32 in - WNW 9.2 mph 24.2 mph N/A   Unknown
3:56 AM 12.0 °F 0.5 °F 3.0 °F 67% 29.33 in - NW 8.1 mph - N/A   Unknown
4:56 AM 12.0 °F 0.5 °F 1.0 °F 61% 29.37 in - WNW 8.1 mph - N/A   Unknown
5:56 AM 10.0 °F -0.9 °F -5.1 °F 51% 29.40 in - Variable 6.9 mph 20.7 mph N/A   Unknown
6:56 AM 9.0 °F - -5.1 °F 53% 29.42 in - North - - N/A   Unknown
7:56 AM 8.1 °F -3.2 °F -5.1 °F 55% 29.44 in - Variable 6.9 mph - N/A   Unknown
8:56 AM 8.1 °F -3.2 °F -8.0 °F 48% 29.47 in - Variable 6.9 mph 19.6 mph N/A   Unknown
9:56 AM 6.1 °F -6.8 °F -11.0 °F 45% 29.51 in - West 8.1 mph 23.0 mph N/A   Unknown
10:56 AM 5.0 °F -4.1 °F -9.9 °F 50% 29.53 in - Variable 4.6 mph - N/A   Unknown
11:56 AM 5.0 °F -6.9 °F -11.0 °F 48% 29.55 in - Variable 6.9 mph 19.6 mph N/A   Unknown
12:56 PM 3.0 °F -10.5 °F -11.0 °F 52% 29.58 in - WNW 8.1 mph 21.9 mph N/A   Unknown
1:56 PM 5.0 °F -4.1 °F -9.9 °F 50% 29.61 in - Variable 4.6 mph - N/A   Unknown
2:56 PM 3.9 °F -9.4 °F -9.0 °F 55% 29.64 in - West 8.1 mph - N/A   Unknown
3:56 PM 3.9 °F -6.9 °F -9.0 °F 55% 29.67 in - Variable 5.8 mph - N/A   Unknown
4:56 PM 3.9 °F -5.3 °F -9.0 °F 55% 29.70 in - Variable 4.6 mph - N/A   Unknown
5:56 PM 3.0 °F - -9.0 °F 57% 29.72 in - North - - N/A   Unknown
6:56 PM 3.9 °F -3.4 °F -7.1 °F 60% 29.75 in - Variable 3.5 mph - N/A   Unknown
7:56 PM 3.0 °F -6.4 °F -9.9 °F 55% 29.77 in - West 4.6 mph - N/A   Unknown
8:56 PM 1.9 °F -5.6 °F -9.9 °F 58% 29.80 in - Variable 3.5 mph - N/A   Unknown
9:56 PM 3.0 °F - -9.0 °F 57% 29.81 in - North - - N/A   Unknown
10:56 PM 3.0 °F -6.4 °F -4.0 °F 73% 29.83 in - Variable 4.6 mph - N/A   Unknown
11:56 PM 3.0 °F -8.0 °F -5.1 °F 69% 29.84 in - Variable 5.8 mph - N/A   Unknown